When you browse on this site, cookies collect data to enhance your experience and personalize the content and advertising you see.
Visit our Privacy Policy to learn more. By continuing to use the site, you agree to this use of cookies and data.
  • In Österreich
  • Länderverzeichnis
  • Für 7 Tage
  • Wassertemperatur
  • Satellitenkarten
  • Wetterkarte
  • News
  • Widgets
  • user-avatar
    Anmelden

    Stündliche Wetter Sydney

    Heute, 18 November, Sonntag

    Zeit Temperatur Niederschläge Wind Luftdruck Luftfeuchtigkeit
    00:00 +15°C° 0.1 mm 5 m/S 766 mmHg 88%
    01:00 +15°C° 0.1 mm 5 m/S 765 mmHg 89%
    02:00 +15°C° 0.1 mm 5 m/S 765 mmHg 88%
    03:00 +14°C° 0.1 mm 5 m/S 765 mmHg 88%
    04:00 +14°C° 0 mm 4 m/S 765 mmHg 88%
    05:00 +15°C° 0 mm 4 m/S 766 mmHg 82%
    06:00 +17°C° 0 mm 4 m/S 766 mmHg 77%
    07:00 +18°C° 0 mm 4 m/S 766 mmHg 72%
    08:00 +19°C° 0 mm 4 m/S 766 mmHg 64%
    09:00 +21°C° 0 mm 4 m/S 766 mmHg 57%
    10:00 +22°C° 0 mm 3 m/S 767 mmHg 48%
    11:00 +23°C° 0 mm 4 m/S 766 mmHg 47%
    12:00 +23°C° 0 mm 4 m/S 766 mmHg 46%
    13:00 +23°C° 0 mm 5 m/S 766 mmHg 45%
    14:00 +23°C° 0 mm 5 m/S 766 mmHg 47%
    15:00 +22°C° 0 mm 5 m/S 766 mmHg 50%
    16:00 +22°C° 0 mm 3 m/S 765 mmHg 53%
    17:00 +20°C° 0 mm 3 m/S 766 mmHg 58%
    18:00 +19°C° 0 mm 3 m/S 766 mmHg 64%
    19:00 +18°C° 0 mm 3 m/S 766 mmHg 70%
    20:00 +17°C° 0 mm 3 m/S 766 mmHg 72%
    21:00 +16°C° 0 mm 2 m/S 766 mmHg 74%
    22:00 +16°C° 0 mm 1 m/S 766 mmHg 78%
    23:00 +15°C° 0 mm 2 m/S 766 mmHg 79%

    Morgen, 19 November, Montag

    Zeit Temperatur Niederschläge Wind Luftdruck Luftfeuchtigkeit
    00:00 +15°C° 0 mm 2 m/S 766 mmHg 81%
    01:00 +15°C° 0 mm 2 m/S 766 mmHg 82%
    02:00 +15°C° 0 mm 2 m/S 765 mmHg 83%
    03:00 +15°C° 0 mm 2 m/S 765 mmHg 83%
    04:00 +15°C° 0 mm 2 m/S 765 mmHg 84%
    05:00 +16°C° 0 mm 2 m/S 765 mmHg 77%
    06:00 +18°C° 0 mm 2 m/S 765 mmHg 71%
    07:00 +20°C° 0 mm 1 m/S 765 mmHg 64%
    08:00 +21°C° 0 mm 2 m/S 765 mmHg 58%
    09:00 +23°C° 0 mm 2 m/S 765 mmHg 51%
    10:00 +24°C° 0 mm 3 m/S 765 mmHg 45%
    11:00 +24°C° 0 mm 3 m/S 764 mmHg 45%
    12:00 +24°C° 0 mm 3 m/S 764 mmHg 46%
    13:00 +23°C° 0 mm 4 m/S 763 mmHg 46%
    14:00 +23°C° 0 mm 4 m/S 763 mmHg 46%
    15:00 +25°C° 0 mm 4 m/S 762 mmHg 47%
    16:00 +25°C° 0 mm 4 m/S 762 mmHg 47%
    17:00 +22°C° 0 mm 4 m/S 762 mmHg 52%
    18:00 +21°C° 0 mm 4 m/S 762 mmHg 57%
    19:00 +19°C° 0 mm 4 m/S 762 mmHg 63%
    20:00 +18°C° 0 mm 4 m/S 762 mmHg 67%
    21:00 +17°C° 0 mm 3 m/S 762 mmHg 70%
    22:00 +17°C° 0 mm 3 m/S 762 mmHg 74%
    23:00 +16°C° 0 mm 3 m/S 762 mmHg 77%

    übermorgen, 20 November, Dienstag

    Zeit Temperatur Niederschläge Wind Luftdruck Luftfeuchtigkeit
    00:00 +14°C° 0 mm 3 m/S 762 mmHg 80%
    01:00 +15°C° 0 mm 2 m/S 762 mmHg 84%
    02:00 +14°C° 0 mm 2 m/S 761 mmHg 86%
    03:00 +14°C° 0 mm 2 m/S 761 mmHg 87%
    04:00 +14°C° 0 mm 2 m/S 761 mmHg 89%
    05:00 +16°C° 0 mm 2 m/S 761 mmHg 82%
    06:00 +17°C° 0 mm 2 m/S 761 mmHg 74%
    07:00 +19°C° 0 mm 3 m/S 760 mmHg 66%
    08:00 +22°C° 0 mm 3 m/S 760 mmHg 58%
    09:00 +25°C° 0 mm 3 m/S 760 mmHg 49%
    10:00 +27°C° 0 mm 4 m/S 759 mmHg 40%
    11:00 +28°C° 0 mm 4 m/S 758 mmHg 38%
    12:00 +29°C° 0 mm 5 m/S 758 mmHg 36%
    13:00 +30°C° 0 mm 5 m/S 757 mmHg 34%
    14:00 +29°C° 0 mm 6 m/S 756 mmHg 39%
    15:00 +28°C° 0 mm 6 m/S 756 mmHg 43%
    16:00 +27°C° 0 mm 6 m/S 755 mmHg 48%
    17:00 +26°C° 0 mm 6 m/S 755 mmHg 54%
    18:00 +23°C° 0 mm 6 m/S 754 mmHg 61%
    19:00 +22°C° 0 mm 6 m/S 754 mmHg 68%
    20:00 +22°C° 0 mm 6 m/S 754 mmHg 69%
    21:00 +22°C° 0 mm 6 m/S 754 mmHg 71%
    22:00 +21°C° 0 mm 6 m/S 755 mmHg 73%
    23:00 +21°C° 0 mm 5 m/S 754 mmHg 74%

    21 November, Mittwoch

    Zeit Temperatur Niederschläge Wind Luftdruck Luftfeuchtigkeit
    00:00 +21°C° 0 mm 5 m/S 753 mmHg 76%
    01:00 +20°C° 0 mm 5 m/S 752 mmHg 78%
    02:00 +20°C° 0.1 mm 4 m/S 752 mmHg 80%
    03:00 +20°C° 0.1 mm 4 m/S 752 mmHg 82%
    04:00 +19°C° 0.1 mm 3 m/S 751 mmHg 84%
    05:00 +20°C° 0 mm 4 m/S 751 mmHg 79%
    06:00 +22°C° 0 mm 4 m/S 751 mmHg 75%
    07:00 +23°C° 0 mm 4 m/S 751 mmHg 70%
    08:00 +26°C° 0 mm 4 m/S 751 mmHg 63%
    09:00 +28°C° 0 mm 4 m/S 751 mmHg 56%
    10:00 +30°C° 0 mm 4 m/S 751 mmHg 49%
    11:00 +32°C° 0.3 mm 4 m/S 750 mmHg 49%
    12:00 +32°C° 0.3 mm 4 m/S 750 mmHg 48%
    13:00 +32°C° 0.3 mm 4 m/S 749 mmHg 48%
    14:00 +30°C° 0.2 mm 4 m/S 749 mmHg 50%
    15:00 +30°C° 0.2 mm 3 m/S 749 mmHg 51%
    16:00 +29°C° 0.2 mm 3 m/S 748 mmHg 53%
    17:00 +28°C° 0.2 mm 3 m/S 748 mmHg 55%
    18:00 +28°C° 0.2 mm 3 m/S 748 mmHg 56%
    19:00 +27°C° 0.2 mm 4 m/S 748 mmHg 58%
    20:00 +25°C° 0.1 mm 4 m/S 749 mmHg 62%
    21:00 +23°C° 0.1 mm 4 m/S 749 mmHg 67%
    22:00 +22°C° 0.1 mm 4 m/S 749 mmHg 71%
    23:00 +21°C° 0 mm 4 m/S 749 mmHg 75%

    22 November, Donnerstag

    Zeit Temperatur Niederschläge Wind Luftdruck Luftfeuchtigkeit
    00:00 +20°C° 0 mm 3 m/S 749 mmHg 79%
    01:00 +19°C° 0 mm 2 m/S 748 mmHg 82%
    02:00 +19°C° 0 mm 3 m/S 748 mmHg 83%
    03:00 +19°C° 0 mm 3 m/S 748 mmHg 85%
    04:00 +18°C° 0 mm 4 m/S 747 mmHg 86%
    05:00 +20°C° 0.1 mm 5 m/S 747 mmHg 76%
    06:00 +22°C° 0.1 mm 5 m/S 747 mmHg 66%
    07:00 +23°C° 0.1 mm 6 m/S 748 mmHg 56%
    08:00 +24°C° 0.1 mm 7 m/S 748 mmHg 46%
    09:00 +24°C° 0.1 mm 8 m/S 748 mmHg 36%
    10:00 +26°C° 0.1 mm 8 m/S 748 mmHg 25%
    11:00 +26°C° 0 mm 8 m/S 747 mmHg 24%
    12:00 +26°C° 0 mm 8 m/S 747 mmHg 23%
    13:00 +26°C° 0 mm 8 m/S 747 mmHg 22%
    14:00 +26°C° 0 mm 8 m/S 747 mmHg 20%
    15:00 +26°C° 0 mm 8 m/S 747 mmHg 19%
    16:00 +24°C° 0 mm 8 m/S 746 mmHg 17%
    17:00 +22°C° 0 mm 8 m/S 747 mmHg 24%
    18:00 +19°C° 0 mm 9 m/S 748 mmHg 31%
    19:00 +17°C° 0 mm 9 m/S 748 mmHg 38%
    20:00 +17°C° 0 mm 9 m/S 749 mmHg 42%
    21:00 +16°C° 0 mm 10 m/S 749 mmHg 46%
    22:00 +14°C° 0 mm 10 m/S 750 mmHg 49%
    23:00 +14°C° 0 mm 10 m/S 750 mmHg 51%

    23 November, Freitag

    Zeit Temperatur Niederschläge Wind Luftdruck Luftfeuchtigkeit
    00:00 +15°C° 0 mm 9 m/S 750 mmHg 52%
    01:00 +15°C° 0 mm 8 m/S 750 mmHg 54%
    02:00 +13°C° 0 mm 8 m/S 750 mmHg 55%
    03:00 +13°C° 0 mm 8 m/S 750 mmHg 57%
    04:00 +14°C° 0 mm 7 m/S 751 mmHg 58%
    05:00 +15°C° 0 mm 7 m/S 751 mmHg 53%
    06:00 +16°C° 0 mm 7 m/S 752 mmHg 49%
    07:00 +17°C° 0 mm 7 m/S 752 mmHg 44%
    08:00 +18°C° 0 mm 7 m/S 752 mmHg 38%
    09:00 +21°C° 0 mm 7 m/S 752 mmHg 32%
    10:00 +22°C° 0 mm 7 m/S 751 mmHg 26%
    11:00 +23°C° 0 mm 7 m/S 751 mmHg 24%
    12:00 +24°C° 0 mm 7 m/S 750 mmHg 23%
    13:00 +26°C° 0 mm 7 m/S 749 mmHg 21%
    14:00 +24°C° 0 mm 8 m/S 750 mmHg 22%
    15:00 +23°C° 0 mm 9 m/S 750 mmHg 23%
    16:00 +23°C° 0 mm 11 m/S 750 mmHg 24%
    17:00 +21°C° 0 mm 9 m/S 751 mmHg 27%
    18:00 +18°C° 0 mm 8 m/S 751 mmHg 30%
    19:00 +17°C° 0 mm 7 m/S 752 mmHg 33%
    20:00 +16°C° 0 mm 7 m/S 752 mmHg 34%
    21:00 +15°C° 0 mm 6 m/S 752 mmHg 35%
    22:00 +15°C° 0 mm 6 m/S 752 mmHg 37%
    23:00 +14°C° 0 mm 6 m/S 752 mmHg 37%
    Mehr zeigen